• In Österreich
  • Länderverzeichnis
  • Für 7 Tage
  • Wassertemperatur
  • Satellitenkarten
  • Wetterkarte
  • News
  • Widgets
  • user-avatar
    Anmelden

    Stündliche Wetter Retschytsa

    Heute, 19 Juli, Donnerstag

    Zeit Temperatur Niederschläge Wind Luftdruck Luftfeuchtigkeit
    00:00 +20°C° 0 mm 2 m/S 740 mmHg 96%
    01:00 +19°C° 0 mm 2 m/S 740 mmHg 96%
    02:00 +19°C° 0 mm 2 m/S 740 mmHg 97%
    03:00 +19°C° 0 mm 2 m/S 740 mmHg 97%
    04:00 +19°C° 0 mm 2 m/S 740 mmHg 97%
    05:00 +18°C° 0 mm 2 m/S 741 mmHg 97%
    06:00 +20°C° 0,1 mm 2 m/S 741 mmHg 94%
    07:00 +21°C° 0,1 mm 2 m/S 741 mmHg 90%
    08:00 +24°C° 0 mm 2 m/S 741 mmHg 85%
    09:00 +25°C° 0,4 mm 2 m/S 741 mmHg 79%
    10:00 +26°C° 0,4 mm 3 m/S 741 mmHg 74%
    11:00 +27°C° 0,4 mm 3 m/S 740 mmHg 68%
    12:00 +27°C° 0,7 mm 3 m/S 740 mmHg 66%
    13:00 +28°C° 0,7 mm 3 m/S 740 mmHg 65%
    14:00 +28°C° 0,7 mm 3 m/S 740 mmHg 64%
    15:00 +28°C° 0,6 mm 3 m/S 740 mmHg 67%
    16:00 +27°C° 0,6 mm 3 m/S 740 mmHg 70%
    17:00 +27°C° 0,6 mm 3 m/S 740 mmHg 73%
    18:00 +25°C° 0 mm 3 m/S 740 mmHg 79%
    19:00 +24°C° 0 mm 3 m/S 740 mmHg 84%
    20:00 +23°C° 0 mm 2 m/S 740 mmHg 89%
    21:00 +21°C° 0 mm 2 m/S 740 mmHg 92%
    22:00 +20°C° 0 mm 2 m/S 740 mmHg 94%
    23:00 +19°C° 0 mm 2 m/S 740 mmHg 96%

    Morgen, 20 Juli, Freitag

    Zeit Temperatur Niederschläge Wind Luftdruck Luftfeuchtigkeit
    00:00 +19°C° 0 mm 2 m/S 740 mmHg 96%
    01:00 +19°C° 0 mm 2 m/S 740 mmHg 97%
    02:00 +18°C° 0 mm 2 m/S 740 mmHg 97%
    03:00 +18°C° 0 mm 2 m/S 740 mmHg 97%
    04:00 +18°C° 0 mm 2 m/S 740 mmHg 98%
    05:00 +18°C° 0 mm 2 m/S 740 mmHg 98%
    06:00 +20°C° 0,1 mm 2 m/S 740 mmHg 93%
    07:00 +21°C° 0,1 mm 2 m/S 741 mmHg 88%
    08:00 +23°C° 0,1 mm 2 m/S 741 mmHg 83%
    09:00 +24°C° 0,9 mm 3 m/S 741 mmHg 81%
    10:00 +25°C° 0,9 mm 3 m/S 741 mmHg 78%
    11:00 +26°C° 0,9 mm 3 m/S 741 mmHg 76%
    12:00 +26°C° 2,4 mm 3 m/S 741 mmHg 76%
    13:00 +26°C° 2,4 mm 3 m/S 741 mmHg 76%
    14:00 +27°C° 2,4 mm 3 m/S 740 mmHg 76%
    15:00 +27°C° 0,6 mm 3 m/S 740 mmHg 75%
    16:00 +27°C° 0,6 mm 3 m/S 740 mmHg 75%
    17:00 +27°C° 0,6 mm 3 m/S 740 mmHg 75%
    18:00 +25°C° 1 mm 2 m/S 740 mmHg 80%
    19:00 +24°C° 1 mm 2 m/S 740 mmHg 85%
    20:00 +23°C° 1 mm 2 m/S 741 mmHg 90%
    21:00 +21°C° 0,1 mm 2 m/S 741 mmHg 91%
    22:00 +21°C° 0,1 mm 2 m/S 741 mmHg 93%
    23:00 +20°C° 0,1 mm 2 m/S 741 mmHg 94%

    übermorgen, 21 Juli, Samstag

    Zeit Temperatur Niederschläge Wind Luftdruck Luftfeuchtigkeit
    00:00 +20°C° 0 mm 2 m/S 741 mmHg 95%
    01:00 +19°C° 0 mm 2 m/S 741 mmHg 96%
    02:00 +19°C° 0 mm 2 m/S 741 mmHg 96%
    03:00 +19°C° 0 mm 2 m/S 741 mmHg 97%
    04:00 +19°C° 0 mm 2 m/S 741 mmHg 97%
    05:00 +19°C° 0 mm 2 m/S 742 mmHg 97%
    06:00 +20°C° 0 mm 2 m/S 742 mmHg 93%
    07:00 +22°C° 0 mm 3 m/S 742 mmHg 89%
    08:00 +24°C° 0 mm 3 m/S 742 mmHg 85%
    09:00 +25°C° 2,1 mm 3 m/S 742 mmHg 83%
    10:00 +25°C° 2,1 mm 3 m/S 742 mmHg 82%
    11:00 +26°C° 2,1 mm 3 m/S 742 mmHg 80%
    12:00 +26°C° 0,5 mm 4 m/S 742 mmHg 78%
    13:00 +27°C° 0,5 mm 4 m/S 742 mmHg 75%
    14:00 +27°C° 0,5 mm 4 m/S 742 mmHg 73%
    15:00 +26°C° 1 mm 4 m/S 742 mmHg 76%
    16:00 +26°C° 1 mm 3 m/S 742 mmHg 79%
    17:00 +26°C° 1 mm 3 m/S 742 mmHg 81%
    18:00 +24°C° 0,4 mm 3 m/S 742 mmHg 85%
    19:00 +22°C° 0,4 mm 3 m/S 742 mmHg 88%
    20:00 +21°C° 0,4 mm 3 m/S 742 mmHg 91%
    21:00 +21°C° 0 mm 3 m/S 742 mmHg 92%
    22:00 +21°C° 0 mm 3 m/S 743 mmHg 93%
    23:00 +20°C° 0 mm 3 m/S 743 mmHg 94%

    22 Juli, Sonntag

    Zeit Temperatur Niederschläge Wind Luftdruck Luftfeuchtigkeit
    00:00 +20°C° 0 mm 3 m/S 743 mmHg 95%
    01:00 +19°C° 0 mm 3 m/S 743 mmHg 96%
    02:00 +19°C° 0 mm 3 m/S 743 mmHg 96%
    03:00 +19°C° 0 mm 3 m/S 743 mmHg 96%
    04:00 +19°C° 0 mm 3 m/S 743 mmHg 97%
    05:00 +19°C° 0 mm 3 m/S 743 mmHg 97%
    06:00 +20°C° 0,1 mm 3 m/S 743 mmHg 93%
    07:00 +21°C° 0,1 mm 3 m/S 743 mmHg 90%
    08:00 +22°C° 0,1 mm 4 m/S 743 mmHg 86%
    09:00 +23°C° 0,7 mm 4 m/S 743 mmHg 82%
    10:00 +25°C° 0,7 mm 4 m/S 743 mmHg 78%
    11:00 +26°C° 0,7 mm 5 m/S 743 mmHg 73%
    12:00 +26°C° 0,3 mm 5 m/S 743 mmHg 70%
    13:00 +27°C° 0,3 mm 5 m/S 743 mmHg 67%
    14:00 +27°C° 0,3 mm 5 m/S 743 mmHg 64%
    15:00 +27°C° 0 mm 4 m/S 743 mmHg 65%
    16:00 +27°C° 0 mm 4 m/S 743 mmHg 67%
    17:00 +26°C° 0 mm 3 m/S 742 mmHg 68%
    18:00 +25°C° 0 mm 3 m/S 743 mmHg 74%
    19:00 +24°C° 0 mm 2 m/S 743 mmHg 80%
    20:00 +21°C° 0 mm 2 m/S 743 mmHg 85%
    21:00 +21°C° 0 mm 2 m/S 743 mmHg 88%
    22:00 +20°C° 0 mm 2 m/S 743 mmHg 90%
    23:00 +19°C° 0 mm 2 m/S 743 mmHg 93%

    23 Juli, Montag

    Zeit Temperatur Niederschläge Wind Luftdruck Luftfeuchtigkeit
    00:00 +19°C° 0 mm 2 m/S 743 mmHg 94%
    01:00 +19°C° 0 mm 2 m/S 743 mmHg 95%
    02:00 +19°C° 0 mm 3 m/S 743 mmHg 96%
    03:00 +18°C° 0 mm 3 m/S 743 mmHg 96%
    04:00 +18°C° 0 mm 2 m/S 743 mmHg 96%
    05:00 +18°C° 0 mm 2 m/S 743 mmHg 96%
    06:00 +19°C° 0 mm 3 m/S 743 mmHg 92%
    07:00 +20°C° 0 mm 3 m/S 743 mmHg 88%
    08:00 +21°C° 0 mm 3 m/S 743 mmHg 84%
    09:00 +22°C° 0,3 mm 3 m/S 743 mmHg 81%
    10:00 +23°C° 0,3 mm 4 m/S 743 mmHg 78%
    11:00 +25°C° 0,3 mm 4 m/S 743 mmHg 76%
    12:00 +25°C° 1 mm 4 m/S 743 mmHg 77%
    13:00 +25°C° 1 mm 4 m/S 743 mmHg 78%
    14:00 +25°C° 1 mm 4 m/S 743 mmHg 79%
    15:00 +25°C° 0,5 mm 4 m/S 743 mmHg 81%
    16:00 +23°C° 0,5 mm 4 m/S 743 mmHg 83%
    17:00 +23°C° 0,5 mm 4 m/S 743 mmHg 85%
    18:00 +22°C° 0,1 mm 3 m/S 743 mmHg 87%
    19:00 +21°C° 0,1 mm 2 m/S 744 mmHg 89%
    20:00 +21°C° 0,1 mm 2 m/S 744 mmHg 91%
    21:00 +20°C° 0,1 mm 2 m/S 744 mmHg 92%
    22:00 +20°C° 0,1 mm 2 m/S 744 mmHg 93%
    23:00 +20°C° 0,1 mm 2 m/S 744 mmHg 94%

    24 Juli, Dienstag

    Zeit Temperatur Niederschläge Wind Luftdruck Luftfeuchtigkeit
    00:00 +19°C° 0,1 mm 2 m/S 744 mmHg 94%
    01:00 +19°C° 0,1 mm 2 m/S 744 mmHg 93%
    02:00 +19°C° 0,1 mm 3 m/S 744 mmHg 93%
    03:00 +18°C° 0,1 mm 3 m/S 744 mmHg 93%
    04:00 +18°C° 0,1 mm 3 m/S 745 mmHg 92%
    05:00 +18°C° 0,1 mm 2 m/S 745 mmHg 92%
    06:00 +19°C° 0,2 mm 3 m/S 745 mmHg 90%
    07:00 +19°C° 0,2 mm 3 m/S 745 mmHg 89%
    08:00 +20°C° 0,2 mm 3 m/S 746 mmHg 87%
    09:00 +21°C° 0,1 mm 3 m/S 746 mmHg 84%
    10:00 +22°C° 0,1 mm 3 m/S 746 mmHg 81%
    11:00 +23°C° 0,1 mm 4 m/S 746 mmHg 78%
    12:00 +25°C° 0,2 mm 4 m/S 746 mmHg 74%
    13:00 +25°C° 0,2 mm 4 m/S 746 mmHg 70%
    14:00 +26°C° 0,2 mm 5 m/S 746 mmHg 66%
    15:00 +26°C° 0,2 mm 4 m/S 746 mmHg 68%
    16:00 +26°C° 0,2 mm 4 m/S 746 mmHg 69%
    17:00 +25°C° 0,2 mm 4 m/S 746 mmHg 70%
    18:00 +24°C° 0,2 mm 3 m/S 746 mmHg 75%
    19:00 +23°C° 0,2 mm 2 m/S 746 mmHg 80%
    20:00 +21°C° 0,2 mm 2 m/S 746 mmHg 84%
    21:00 +20°C° 0,1 mm 2 m/S 746 mmHg 86%
    22:00 +20°C° 0,1 mm 2 m/S 747 mmHg 87%
    23:00 +19°C° 0,1 mm 2 m/S 747 mmHg 89%
    Mehr zeigen